TimeMDT,TemperatureF,Dew PointF,Humidity,Sea Level PressureIn,VisibilityMPH,Wind Direction,Wind SpeedMPH,Gust SpeedMPH,PrecipitationIn,Events,Conditions,WindDirDegrees,DateUTC
12:15 AM,69.8,44.6,40,30.11,10.0,WSW,8.1,-,N/A,,Clear,240,2013-08-19 06:15:00
12:35 AM,69.8,42.8,38,30.11,10.0,North,4.6,-,N/A,,Clear,360,2013-08-19 06:35:00
12:55 AM,71.6,42.8,35,30.11,10.0,WSW,5.8,-,N/A,,Clear,240,2013-08-19 06:55:00
1:15 AM,69.8,41.0,35,30.11,10.0,South,9.2,-,N/A,,Clear,170,2013-08-19 07:15:00
1:35 AM,66.2,41.0,40,30.11,10.0,South,9.2,-,N/A,,Clear,180,2013-08-19 07:35:00
1:55 AM,66.2,42.8,43,30.11,10.0,Calm,Calm,-,N/A,,Clear,0,2013-08-19 07:55:00
2:15 AM,64.4,42.8,45,30.11,10.0,Calm,Calm,-,N/A,,Clear,0,2013-08-19 08:15:00
2:35 AM,66.2,42.8,43,30.10,10.0,SW,4.6,-,N/A,,Clear,220,2013-08-19 08:35:00
2:55 AM,69.8,41.0,35,30.11,10.0,SW,11.5,-,N/A,,Clear,230,2013-08-19 08:55:00
3:15 AM,69.8,41.0,35,30.10,10.0,WSW,5.8,-,N/A,,Clear,240,2013-08-19 09:15:00
3:35 AM,68.0,39.2,35,30.10,10.0,SSW,3.5,-,N/A,,Clear,210,2013-08-19 09:35:00
3:55 AM,68.0,39.2,35,30.10,10.0,SW,10.4,-,N/A,,Clear,230,2013-08-19 09:55:00
4:15 AM,62.6,41.0,45,30.10,10.0,Calm,Calm,-,N/A,,Clear,0,2013-08-19 10:15:00
4:35 AM,60.8,41.0,48,30.10,10.0,Calm,Calm,-,N/A,,Clear,0,2013-08-19 10:35:00
4:55 AM,60.8,39.2,45,30.10,10.0,ENE,3.5,-,N/A,,Clear,70,2013-08-19 10:55:00
5:15 AM,60.8,39.2,45,30.10,10.0,Calm,Calm,-,N/A,,Clear,0,2013-08-19 11:15:00
5:35 AM,60.8,37.4,42,30.10,10.0,South,5.8,-,N/A,,Clear,190,2013-08-19 11:35:00
5:55 AM,60.8,39.2,45,30.10,10.0,South,5.8,-,N/A,,Clear,190,2013-08-19 11:55:00
6:35 AM,62.6,39.2,42,30.11,10.0,SW,6.9,-,N/A,,Clear,220,2013-08-19 12:35:00
6:55 AM,62.6,37.4,39,30.12,10.0,Calm,Calm,-,N/A,,Clear,0,2013-08-19 12:55:00
7:15 AM,57.2,41.0,55,30.13,10.0,NNE,3.5,-,N/A,,Clear,20,2013-08-19 13:15:00
7:35 AM,59.0,41.0,51,30.13,10.0,Calm,Calm,-,N/A,,Clear,0,2013-08-19 13:35:00
7:55 AM,60.8,44.6,55,30.14,10.0,Calm,Calm,-,N/A,,Clear,0,2013-08-19 13:55:00
8:16 AM,62.6,42.8,48,30.14,10.0,SSW,3.5,-,N/A,,Clear,210,2013-08-19 14:16:00
8:35 AM,64.4,42.8,45,30.15,10.0,SW,3.5,-,N/A,,Clear,230,2013-08-19 14:35:00
8:55 AM,69.8,41.0,35,30.15,10.0,Calm,Calm,-,N/A,,Clear,0,2013-08-19 14:55:00
9:15 AM,73.4,48.2,41,30.15,10.0,Calm,Calm,-,N/A,,Clear,0,2013-08-19 15:15:00
9:35 AM,75.2,44.6,34,30.14,10.0,Calm,Calm,-,N/A,,Clear,0,2013-08-19 15:35:00
10:15 AM,75.2,44.6,34,30.13,10.0,NE,5.8,-,N/A,,Clear,40,2013-08-19 16:15:00
10:35 AM,77.0,48.2,36,30.13,10.0,NNE,6.9,-,N/A,,Clear,20,2013-08-19 16:35:00
11:15 AM,78.8,46.4,32,30.12,10.0,NE,6.9,-,N/A,,Clear,50,2013-08-19 17:15:00
11:55 AM,80.6,46.4,30,30.10,10.0,NE,5.8,-,N/A,,Clear,40,2013-08-19 17:55:00
12:15 PM,82.4,46.4,28,30.10,10.0,North,6.9,-,N/A,,Clear,360,2013-08-19 18:15:00
12:35 PM,82.4,46.4,28,30.09,10.0,NE,6.9,-,N/A,,Clear,40,2013-08-19 18:35:00
1:15 PM,87.8,46.4,24,30.08,10.0,North,4.6,-,N/A,,Clear,350,2013-08-19 19:15:00
1:35 PM,86.0,42.8,22,30.07,10.0,SE,6.9,-,N/A,,Clear,130,2013-08-19 19:35:00
1:55 PM,89.6,39.2,17,30.06,5.0,SE,10.4,16.1,N/A,,Clear,140,2013-08-19 19:55:00
2:15 PM,89.6,37.4,16,30.06,6.0,East,6.9,-,N/A,,Clear,100,2013-08-19 20:15:00
2:35 PM,89.6,37.4,16,30.06,5.0,Calm,Calm,-,N/A,,Clear,0,2013-08-19 20:35:00
2:55 PM,89.6,39.2,17,30.05,10.0,WNW,9.2,-,N/A,,Clear,290,2013-08-19 20:55:00
3:15 PM,91.4,37.4,15,30.04,9.0,WSW,6.9,-,N/A,,Clear,250,2013-08-19 21:15:00
3:35 PM,89.6,37.4,16,30.03,10.0,West,10.4,-,N/A,,Clear,270,2013-08-19 21:35:00
3:55 PM,91.4,37.4,15,30.02,10.0,WSW,4.6,-,N/A,,Clear,250,2013-08-19 21:55:00
4:15 PM,91.4,35.6,14,30.01,10.0,WSW,9.2,-,N/A,,Clear,250,2013-08-19 22:15:00
4:35 PM,91.4,37.4,15,30.01,10.0,West,9.2,-,N/A,,Clear,260,2013-08-19 22:35:00
5:35 PM,89.6,35.6,15,30.00,10.0,Calm,Calm,-,N/A,,Clear,0,2013-08-19 23:35:00
5:55 PM,84.2,48.2,29,30.00,10.0,North,5.8,-,N/A,,Clear,10,2013-08-19 23:55:00
6:15 PM,84.2,44.6,25,30.00,10.0,NNE,4.6,-,N/A,,Clear,20,2013-08-20 00:15:00
6:35 PM,84.2,44.6,25,30.00,10.0,NE,9.2,-,N/A,,Clear,50,2013-08-20 00:35:00
6:55 PM,84.2,44.6,25,30.00,10.0,ENE,4.6,-,N/A,,Clear,60,2013-08-20 00:55:00
7:15 PM,84.2,42.8,23,30.01,10.0,NE,6.9,-,N/A,,Clear,40,2013-08-20 01:15:00
7:35 PM,80.6,44.6,28,30.01,10.0,Calm,Calm,-,N/A,,Clear,0,2013-08-20 01:35:00
7:55 PM,82.4,41.0,23,30.02,10.0,NE,4.6,-,N/A,,Clear,40,2013-08-20 01:55:00
8:15 PM,78.8,42.8,28,30.02,10.0,West,3.5,-,N/A,,Clear,280,2013-08-20 02:15:00
8:55 PM,75.2,41.0,29,30.03,10.0,WNW,3.5,-,N/A,,Clear,300,2013-08-20 02:55:00
9:15 PM,75.2,41.0,29,30.04,10.0,Calm,Calm,-,N/A,,Clear,0,2013-08-20 03:15:00
9:35 PM,75.2,39.2,27,30.04,10.0,WNW,3.5,-,N/A,,Clear,290,2013-08-20 03:35:00
9:55 PM,75.2,39.2,27,30.05,10.0,Calm,Calm,-,N/A,,Clear,0,2013-08-20 03:55:00
10:15 PM,71.6,39.2,31,30.05,10.0,Calm,Calm,-,N/A,,Clear,0,2013-08-20 04:15:00
10:35 PM,69.8,39.2,33,30.05,10.0,SSW,3.5,-,N/A,,Clear,200,2013-08-20 04:35:00
11:35 PM,68.0,39.2,35,30.05,10.0,Calm,Calm,-,N/A,,Partly Cloudy,0,2013-08-20 05:35:00
11:55 PM,73.4,32.0,22,30.04,10.0,SW,8.1,-,N/A,,Scattered Clouds,230,2013-08-20 05:55:00